Weather History for Colby, KS

Change the Weather History Date:

Thursday, February 7, 2013

  Actual Average (KGLD) Record (KGLD)
Temperature  
Mean Temperature 40 °F 31 °F  
Max Temperature 53 °F 43 °F 74 °F (1987)
Min Temperature 26 °F 18 °F -16 °F (1933)
Degree Days  
Heating Degree Days 24 34  
Month to date heating degree days 244  
Since 1 July heating degree days 3747  
Cooling Degree Days 0 0  
Month to date cooling degree days 0  
Year to date cooling degree days 0  
Moisture  
Dew Point 26 °F    
Average Humidity 60    
Maximum Humidity 100    
Minimum Humidity 30    
Precipitation  
Precipitation 0.00 in 0.02 in 0.29 in (1980)
Month to date precipitation 0.11  
Year to date precipitation 0.49  
Snow  
Snow 0.00 in 0.20 in - ()
Month to date snowfall 1.5  
Since 1 July snowfall 20.1  
Snow Depth -    
Sea Level Pressure  
Sea Level Pressure 30.09 in    
Wind  
Wind Speed 13 mph (NNW)    
Max Wind Speed 22 mph    
Max Gust Speed 29 mph    
Visibility 10 miles    
Events      
T = Trace of Precipitation, MM = Missing Value Source: NWS Daily Summary

Daily Weather History Graph

Daily Weather History Graph

Search for Another Location

Airport:

Trip Planner

Search our weather history database for the weather conditions in past years. The results will help you decide how hot, cold, wet, or windy it might be!

Date:

Astronomy

Feb. 07, 2013 Rise Set
Actual Time 7:45 AM CST 6:12 PM CST
Civil Twilight 7:17 AM CST 6:39 PM CST
Nautical Twilight 6:45 AM CST 7:11 PM CST
Astronomical Twilight 6:14 AM CST 7:43 PM CST
Moon 5:25 AM CST (2/7) 3:39 PM CST (2/7)
Length of Visible Light 11h 22m
Length of Day
10h 26m
Waning Crescent, 9% of the Moon is Illuminated
Feb 7
Waning Crescent
Feb 10
New
Feb 17
First Quarter
Feb 25
Full
Mar 4
Last Quarter

Hourly Weather History & Observations

Time (CST) Temp. Windchill Dew Point Humidity Pressure Visibility Wind Dir Wind Speed Gust Speed Precip Events Conditions
12:35 AM 44.6 °F 39.2 °F 32.0 °F 61% 29.95 in 10.0 mi North 10.4 mph 20.7 mph N/A   Overcast
12:55 AM 42.8 °F 36.2 °F 32.0 °F 66% 29.95 in 10.0 mi North 12.7 mph - N/A   Scattered Clouds
1:15 AM 42.8 °F 34.8 °F 32.0 °F 66% 29.95 in 10.0 mi NNW 17.3 mph 23.0 mph N/A   Mostly Cloudy
1:35 AM 42.8 °F 35.8 °F 32.0 °F 66% 29.96 in 10.0 mi North 13.8 mph 21.9 mph N/A   Overcast
1:55 AM 41.0 °F 31.9 °F 32.0 °F 70% 29.97 in 10.0 mi NNW 19.6 mph 23.0 mph N/A   Overcast
2:15 AM 41.0 °F 31.4 °F 32.0 °F 70% 29.96 in 10.0 mi NNW 21.9 mph 26.5 mph N/A   Overcast
2:35 AM 41.0 °F 32.2 °F 32.0 °F 70% 29.98 in 10.0 mi NNW 18.4 mph 28.8 mph N/A   Overcast
2:55 AM 41.0 °F 31.6 °F 30.2 °F 65% 29.99 in 10.0 mi North 20.7 mph 26.5 mph N/A   Overcast
3:15 AM 41.0 °F 31.4 °F 30.2 °F 65% 29.99 in 10.0 mi North 21.9 mph 26.5 mph N/A   Overcast
3:35 AM 41.0 °F 31.9 °F 30.2 °F 65% 30.01 in 10.0 mi North 19.6 mph 28.8 mph N/A   Overcast
3:55 AM 41.0 °F 32.5 °F 30.2 °F 65% 30.02 in 10.0 mi NNW 17.3 mph 25.3 mph N/A   Overcast
4:15 AM 39.2 °F 29.6 °F 30.2 °F 70% 30.02 in 10.0 mi NNW 19.6 mph 27.6 mph N/A   Overcast
4:35 AM 37.4 °F 28.2 °F 30.2 °F 75% 30.02 in 10.0 mi NNW 16.1 mph - N/A   Scattered Clouds
4:55 AM 37.4 °F 28.2 °F 30.2 °F 75% 30.02 in 10.0 mi NNW 16.1 mph - N/A   Clear
5:15 AM 35.6 °F 26.6 °F 30.2 °F 81% 30.03 in 10.0 mi NNW 13.8 mph 18.4 mph N/A   Clear
5:35 AM 33.8 °F 24.3 °F 30.2 °F 87% 30.04 in 10.0 mi NNW 13.8 mph - N/A   Clear
5:55 AM 33.8 °F 24.3 °F 30.2 °F 87% 30.04 in 10.0 mi NNW 13.8 mph - N/A   Clear
6:15 AM 32.0 °F 22.5 °F 30.2 °F 93% 30.04 in 10.0 mi NW 12.7 mph - N/A   Clear
6:35 AM 32.0 °F 22.5 °F 30.2 °F 93% 30.05 in 10.0 mi NW 12.7 mph - N/A   Clear
6:55 AM 32.0 °F 23.0 °F 28.4 °F 87% 30.06 in 10.0 mi NW 11.5 mph - N/A   Clear
7:15 AM 30.2 °F 20.8 °F 28.4 °F 93% 30.07 in 10.0 mi NW 11.5 mph - N/A   Clear
7:35 AM 30.2 °F 20.8 °F 28.4 °F 93% 30.07 in 10.0 mi NW 11.5 mph - N/A   Clear
7:55 AM 30.2 °F 20.2 °F 30.2 °F 100% 30.08 in 10.0 mi NW 12.7 mph - N/A   Clear
8:15 AM 32.0 °F 22.5 °F 32.0 °F 100% 30.09 in 10.0 mi NW 12.7 mph - N/A   Clear
8:35 AM 32.0 °F 22.1 °F 32.0 °F 100% 30.11 in 10.0 mi NW 13.8 mph - N/A   Clear
8:55 AM 35.6 °F 26.6 °F 32.0 °F 87% 30.13 in 10.0 mi NW 13.8 mph - N/A   Clear
9:15 AM 37.4 °F 28.2 °F 33.8 °F 87% 30.13 in 10.0 mi NNW 16.1 mph - N/A   Clear
9:35 AM 37.4 °F 28.5 °F 33.8 °F 87% 30.14 in 10.0 mi NNW 15.0 mph 23.0 mph N/A   Clear
10:15 AM 42.8 °F 35.4 °F 33.8 °F 70% 30.14 in 10.0 mi NNW 15.0 mph - N/A   Clear
10:35 AM 42.8 °F 35.1 °F 33.8 °F 70% 30.15 in 10.0 mi NNW 16.1 mph - N/A   Clear
10:55 AM 44.6 °F 37.4 °F 33.8 °F 66% 30.15 in 10.0 mi NNW 16.1 mph 21.9 mph N/A   Clear
11:15 AM 46.4 °F 40.1 °F 33.8 °F 62% 30.15 in 10.0 mi NNW 15.0 mph 20.7 mph N/A   Clear
11:35 AM 48.2 °F - 32.0 °F 54% 30.15 in 10.0 mi NNW 15.0 mph 18.4 mph N/A   Clear
11:55 AM 48.2 °F - 32.0 °F 54% 30.15 in 10.0 mi North 11.5 mph - N/A   Clear
12:15 PM 50.0 °F - 30.2 °F 47% 30.14 in 10.0 mi North 12.7 mph 21.9 mph N/A   Clear
12:35 PM 50.0 °F - 28.4 °F 43% 30.14 in 10.0 mi North 9.2 mph - N/A   Clear
12:55 PM 51.8 °F - 28.4 °F 41% 30.13 in 10.0 mi NNW 12.7 mph 21.9 mph N/A   Clear
1:15 PM 51.8 °F - 26.6 °F 38% 30.12 in 10.0 mi North 13.8 mph 20.7 mph N/A   Clear
1:35 PM 51.8 °F - 24.8 °F 35% 30.12 in 10.0 mi North 16.1 mph 20.7 mph N/A   Clear
1:55 PM 53.6 °F - 26.6 °F 35% 30.11 in 10.0 mi NNW 16.1 mph - N/A   Clear
2:15 PM 53.6 °F - 24.8 °F 33% 30.10 in 10.0 mi NNW 13.8 mph 18.4 mph N/A   Clear
2:35 PM 53.6 °F - 23.0 °F 30% 30.10 in 10.0 mi NW 12.7 mph 21.9 mph N/A   Clear
2:55 PM 53.6 °F - 23.0 °F 30% 30.10 in 10.0 mi NW 11.5 mph 19.6 mph N/A   Clear
3:15 PM 53.6 °F - 23.0 °F 30% 30.09 in 10.0 mi NNW 16.1 mph 19.6 mph N/A   Clear
3:35 PM 53.6 °F - 23.0 °F 30% 30.10 in 10.0 mi NNW 15.0 mph 21.9 mph N/A   Clear
3:55 PM 53.6 °F - 23.0 °F 30% 30.10 in 10.0 mi North 9.2 mph - N/A   Clear
4:15 PM 53.6 °F - 23.0 °F 30% 30.10 in 10.0 mi NNW 11.5 mph 21.9 mph N/A   Clear
4:35 PM 51.8 °F - 23.0 °F 33% 30.10 in 10.0 mi North 11.5 mph 17.3 mph N/A   Clear
4:55 PM 51.8 °F - 21.2 °F 30% 30.10 in 10.0 mi NW 12.7 mph - N/A   Clear
5:15 PM 51.8 °F - 21.2 °F 30% 30.11 in 10.0 mi North 10.4 mph - N/A   Clear
5:35 PM 50.0 °F - 21.2 °F 32% 30.12 in 10.0 mi NNW 8.1 mph - N/A   Clear
5:55 PM 46.4 °F 43.5 °F 21.2 °F 37% 30.13 in 10.0 mi NNW 5.8 mph - N/A   Clear
6:15 PM 46.4 °F 43.5 °F 21.2 °F 37% 30.13 in 10.0 mi North 5.8 mph - N/A   Clear
6:35 PM 44.6 °F 42.2 °F 21.2 °F 39% 30.14 in 10.0 mi North 4.6 mph - N/A   Clear
6:55 PM 41.0 °F 38.0 °F 19.4 °F 42% 30.14 in 10.0 mi NNW 4.6 mph - N/A   Clear
7:15 PM 44.6 °F 42.2 °F 21.2 °F 39% 30.14 in 10.0 mi North 4.6 mph - N/A   Clear
7:35 PM 41.0 °F 37.1 °F 19.4 °F 42% 30.15 in 10.0 mi NW 5.8 mph - N/A   Clear
7:55 PM 39.2 °F 35.9 °F 19.4 °F 45% 30.15 in 10.0 mi North 4.6 mph - N/A   Clear
8:15 PM 33.8 °F - 17.6 °F 52% 30.16 in 10.0 mi Calm Calm - N/A   Clear
8:35 PM 32.0 °F - 19.4 °F 60% 30.16 in 10.0 mi Calm Calm - N/A   Clear
8:55 PM 32.0 °F - 19.4 °F 60% 30.16 in 10.0 mi Calm Calm - N/A   Clear
9:15 PM 32.0 °F - 19.4 °F 60% 30.16 in 10.0 mi Calm Calm - N/A   Clear
9:35 PM 32.0 °F - 19.4 °F 60% 30.16 in 10.0 mi Calm Calm - N/A   Clear
9:55 PM 30.2 °F - 19.4 °F 64% 30.17 in 10.0 mi Calm Calm - N/A   Clear
10:15 PM 32.0 °F - 19.4 °F 60% 30.16 in 10.0 mi Calm Calm - N/A   Clear
10:35 PM 32.0 °F - 19.4 °F 60% 30.16 in 10.0 mi Calm Calm - N/A   Clear
10:55 PM 30.2 °F - 19.4 °F 64% 30.16 in 10.0 mi Calm Calm - N/A   Clear
11:15 PM 28.4 °F - 19.4 °F 69% 30.15 in 10.0 mi Calm Calm - N/A   Clear
11:35 PM 30.2 °F - 19.4 °F 64% 30.16 in 10.0 mi Calm Calm - N/A   Clear
11:55 PM 26.6 °F - 17.6 °F 69% 30.16 in 10.0 mi Calm Calm - N/A   Clear